Torna al catalogo

COSMOS 1275 DEB

AttivoPO
NORAD 39966·DEBRIS·🇷🇺 Russia

Lanciato Jun 4, 1981 da Plesetsk Cosmodrome

Loading…

Prossimi Passaggi (prossime 24 ore)

TLE

AggiornatoSource: Space-Track

Epoca: Sep 14, 2026, 12:50 UTC

1 39966U 81053PC  26257.53526265  .00000874  00000-0  53992-3 0  9996
2 39966  82.7042 287.3737 0041671 112.4457  41.7022 14.03864992625665

Traccia COSMOS 1275 DEB in tempo reale con AllMySat

Download on the App Store